TJS-5 (44978 NORAD) Tracking and Keplerian Element Data

This shows tracking and keplerian element data for the satellite.

Feedback or suggestion? Click here.




ElementValue
Catalog44978
NameTJS-5
Epoch Orbit27
Epoch Day22.62353582
Epoch Year2020
RAAN283.0557
Inclination0.9946
Eccentricity0.0001803
Argument of Perigee22.2221
Mean Anonmoly219.1407
Mean Motion1.00270029
Decay Rate3.6E-07
L11 44978U 20002A 20022.62353582 .00000036 00000-0 10000-3 0 9999
L22 44978 0.9946 283.0557 0001803 22.2221 219.1407 1.00270029 279

Live tracking and technical data element details for TJS-5 (NORAD 44978). TJS-5 can be tracked NOW for your location showing map with azimuth and elevation plus other details from your city location.

Track the satellite on the map from your city or location and see movement details for azimuth, elevation, latitude, longitude, range, height, and movement on the map or in text.







IsCatalogInMostPopularTable: catalog: 44978, numindb: 2
Update: records affected: 1



GetName: 44978 TJS-5

Hit Count: updated at: Fri, 24 Jan 2020 10:09:28 GMT